Jackson, MN

7:08 AM CST on November 22, 2017 (GMT -0600)
Jackson Municipal

Weather History for KMJQ - November, 2012

Change the Weather History Date:

Wednesday, November 7, 2012

  Actual Average Record
Temperature  
Mean Temperature 39 °F -  
Max Temperature 46 °F 44 °F 69 °F (2001)
Min Temperature 32 °F 28 °F 10 °F (2003)
Degree Days  
Heating Degree Days 26    
Moisture  
Dew Point 32 °F    
Average Humidity 75    
Maximum Humidity 93    
Minimum Humidity 53    
Precipitation  
Precipitation 0.00 in - - ()
Sea Level Pressure  
Sea Level Pressure 30.06 in    
Wind  
Wind Speed 9 mph (WSW)    
Max Wind Speed 16 mph    
Max Gust Speed 24 mph    
Visibility 10 miles    
Events      
Averages and records for this station are not official NWS values.
T = Trace of Precipitation, MM = Missing Value Source: NWS Daily Summary

Daily Weather History Graph

Daily Weather History Graph

Search for Another Location

Airport or City:

Trip Planner

Search our weather history database for the weather conditions in past years. The results will help you decide how hot, cold, wet, or windy it might be!

Date:

Astronomy

Nov. 07, 2012 Rise Set
Actual Time 7:04 AM CST 5:02 PM CST
Civil Twilight 6:33 AM CST 5:32 PM CST
Nautical Twilight 5:59 AM CST 6:07 PM CST
Astronomical Twilight 5:26 AM CST 6:40 PM CST
Moon No Moon Rise 1:23 PM CST (11/7)
Length of Visible Light 10h 59m
Length of Day
9h 58m
Last Quarter, 43% of the Moon is Illuminated
Nov 7
Last Quarter
Nov 13
New
Nov 20
First Quarter
Nov 28
Full
Dec 6
Last Quarter

Hourly Weather History & Observations

Time (CST) Temp. Windchill Dew Point Humidity Pressure Visibility Wind Dir Wind Speed Gust Speed Precip Events Conditions
12:13 AM 41.0 °F 32.8 °F 33.8 °F 76% 30.01 in 10.0 mi NNW 16.1 mph 24.2 mph N/A   Overcast
12:33 AM 41.0 °F 33.1 °F 33.8 °F 76% 30.02 in 10.0 mi NW 15.0 mph 20.7 mph N/A   Overcast
12:53 AM 41.0 °F 33.1 °F 32.0 °F 70% 30.02 in 10.0 mi NNW 15.0 mph 19.6 mph N/A   Overcast
1:14 AM 41.0 °F 33.9 °F 32.0 °F 70% 30.02 in 10.0 mi NNW 12.7 mph 18.4 mph N/A   Overcast
1:33 AM 41.0 °F 35.8 °F 32.0 °F 70% 30.02 in 10.0 mi NNW 8.1 mph - N/A   Overcast
1:54 AM 39.2 °F 34.2 °F 33.8 °F 81% 30.03 in 10.0 mi NNW 6.9 mph - N/A   Overcast
2:13 AM 39.2 °F 32.5 °F 33.8 °F 81% 30.04 in 10.0 mi NNW 10.4 mph - N/A   Overcast
2:54 AM 39.2 °F 32.0 °F 33.8 °F 81% 30.06 in 10.0 mi NNW 11.5 mph - N/A   Overcast
3:13 AM 39.2 °F 31.6 °F 32.0 °F 75% 30.06 in 10.0 mi NNW 12.7 mph - N/A   Overcast
3:33 AM 39.2 °F 32.0 °F 33.8 °F 81% 30.06 in 10.0 mi NW 11.5 mph - N/A   Overcast
3:54 AM 37.4 °F 30.8 °F 32.0 °F 81% 30.06 in 10.0 mi NNW 9.2 mph - N/A   Overcast
4:33 AM 37.4 °F 32.1 °F 32.0 °F 81% 30.07 in 10.0 mi NNW 6.9 mph - N/A   Overcast
4:53 AM 37.4 °F 33.8 °F 32.0 °F 81% 30.07 in 10.0 mi NNW 4.6 mph - N/A   Overcast
5:13 AM 33.8 °F 30.8 °F 32.0 °F 93% 30.07 in 10.0 mi NNW 3.5 mph - N/A   Scattered Clouds
5:33 AM 33.8 °F 27.7 °F 30.2 °F 87% 30.08 in 10.0 mi NW 6.9 mph - N/A   Clear
5:53 AM 33.8 °F 29.6 °F 30.2 °F 87% 30.09 in 10.0 mi West 4.6 mph - N/A   Clear
6:13 AM 32.0 °F 27.5 °F 30.2 °F 93% 30.09 in 10.0 mi WNW 4.6 mph - N/A   Clear
6:33 AM 32.0 °F 26.4 °F 30.2 °F 93% 30.09 in 10.0 mi NW 5.8 mph - N/A   Clear
6:53 AM 32.0 °F 26.4 °F 30.2 °F 93% 30.10 in 10.0 mi WNW 5.8 mph - N/A   Clear
7:13 AM 32.0 °F 26.4 °F 30.2 °F 93% 30.10 in 10.0 mi WNW 5.8 mph - N/A   Clear
7:33 AM 32.0 °F 25.6 °F 30.2 °F 93% 30.11 in 10.0 mi WNW 6.9 mph - N/A   Clear
7:53 AM 33.8 °F 27.7 °F 32.0 °F 93% 30.11 in 10.0 mi NW 6.9 mph - N/A   Clear
8:13 AM 33.8 °F 28.6 °F 32.0 °F 93% 30.11 in 10.0 mi NW 5.8 mph - N/A   Clear
8:33 AM 35.6 °F 30.7 °F 32.0 °F 87% 30.12 in 10.0 mi WNW 5.8 mph - N/A   Clear
8:53 AM 37.4 °F 32.8 °F 32.0 °F 81% 30.12 in 10.0 mi WNW 5.8 mph - N/A   Clear
9:13 AM 37.4 °F 32.8 °F 32.0 °F 81% 30.12 in 10.0 mi WNW 5.8 mph - N/A   Clear
9:33 AM 37.4 °F 32.8 °F 32.0 °F 81% 30.13 in 10.0 mi WNW 5.8 mph - N/A   Clear
9:53 AM 41.0 °F 37.1 °F 32.0 °F 70% 30.12 in 10.0 mi WNW 5.8 mph - N/A   Clear
10:13 AM 41.0 °F 39.0 °F 32.0 °F 70% 30.12 in 10.0 mi NW 3.5 mph - N/A   Clear
10:33 AM 42.8 °F - 33.8 °F 70% 30.12 in 10.0 mi Calm Calm - N/A   Clear
10:53 AM 42.8 °F - 32.0 °F 66% 30.12 in 10.0 mi Calm Calm - N/A   Clear
11:13 AM 42.8 °F - 32.0 °F 66% 30.13 in 10.0 mi Calm Calm - N/A   Clear
11:33 AM 42.8 °F - 32.0 °F 66% 30.12 in 10.0 mi Calm Calm - N/A   Clear
11:53 AM 44.6 °F - 28.4 °F 53% 30.10 in 10.0 mi Calm Calm - N/A   Clear
12:13 PM 44.6 °F 43.1 °F 30.2 °F 57% 30.09 in 10.0 mi SSE 3.5 mph - N/A   Scattered Clouds
12:33 PM 46.4 °F - 30.2 °F 53% 30.10 in 10.0 mi Calm Calm - N/A   Scattered Clouds
12:53 PM 46.4 °F 45.2 °F 30.2 °F 53% 30.09 in 10.0 mi East 3.5 mph - N/A   Scattered Clouds
1:13 PM 46.4 °F - 30.2 °F 53% 30.08 in 10.0 mi Calm Calm - N/A   Mostly Cloudy
1:33 PM 46.4 °F - 30.2 °F 53% 30.07 in 10.0 mi Calm Calm - N/A   Mostly Cloudy
1:53 PM 46.4 °F 42.9 °F 30.2 °F 53% 30.08 in 10.0 mi West 6.9 mph - N/A   Clear
2:13 PM 46.4 °F 43.5 °F 30.2 °F 53% 30.07 in 10.0 mi West 5.8 mph - N/A   Clear
2:33 PM 46.4 °F - 30.2 °F 53% 30.06 in 10.0 mi Calm Calm - N/A   Clear
2:53 PM 46.4 °F - 30.2 °F 53% 30.05 in 10.0 mi Calm Calm - N/A   Clear
3:13 PM 46.4 °F - 30.2 °F 53% 30.05 in 10.0 mi Calm Calm - N/A   Clear
3:38 PM 46.4 °F - 32.0 °F 57% 30.05 in 10.0 mi Calm Calm - N/A   Clear
3:53 PM 46.4 °F 43.5 °F 32.0 °F 57% 30.05 in 10.0 mi SSE 5.8 mph - N/A   Clear
4:13 PM 44.6 °F 42.2 °F 32.0 °F 61% 30.05 in 10.0 mi South 4.6 mph - N/A   Clear
4:33 PM 44.6 °F 43.1 °F 32.0 °F 61% 30.05 in 10.0 mi SSE 3.5 mph - N/A   Clear
4:53 PM 44.6 °F 42.2 °F 32.0 °F 61% 30.05 in 10.0 mi SSE 4.6 mph - N/A   Clear
5:13 PM 42.8 °F 39.3 °F 32.0 °F 66% 30.04 in 10.0 mi SE 5.8 mph - N/A   Clear
5:33 PM 42.8 °F 38.0 °F 32.0 °F 66% 30.04 in 10.0 mi SE 8.1 mph - N/A   Clear
5:53 PM 41.0 °F 36.4 °F 32.0 °F 70% 30.03 in 10.0 mi SE 6.9 mph - N/A   Clear
6:13 PM 41.0 °F 34.7 °F 33.8 °F 76% 30.03 in 10.0 mi SE 10.4 mph - N/A   Clear
6:33 PM 39.2 °F 32.5 °F 32.0 °F 75% 30.04 in 10.0 mi SE 10.4 mph - N/A   Clear
6:54 PM 39.2 °F 32.5 °F 32.0 °F 75% 30.04 in 10.0 mi SE 10.4 mph - N/A   Clear
7:13 PM 37.4 °F 30.3 °F 32.0 °F 81% 30.03 in 10.0 mi SE 10.4 mph - N/A   Clear
7:33 PM 37.4 °F 30.8 °F 32.0 °F 81% 30.03 in 10.0 mi SSE 9.2 mph - N/A   Clear
7:53 PM 37.4 °F 29.3 °F 32.0 °F 81% 30.02 in 10.0 mi SSE 12.7 mph - N/A   Clear
8:14 PM 37.4 °F 30.3 °F 32.0 °F 81% 30.02 in 10.0 mi SSE 10.4 mph - N/A   Clear
8:33 PM 37.4 °F 30.3 °F 32.0 °F 81% 30.02 in 10.0 mi SSE 10.4 mph - N/A   Clear
8:53 PM 37.4 °F 30.3 °F 32.0 °F 81% 30.02 in 10.0 mi SSE 10.4 mph - N/A   Clear
9:14 PM 37.4 °F 30.3 °F 32.0 °F 81% 30.03 in 10.0 mi SSE 10.4 mph - N/A   Clear
9:33 PM 37.4 °F 29.8 °F 32.0 °F 81% 30.03 in 10.0 mi SSE 11.5 mph - N/A   Clear
9:53 PM 37.4 °F 28.9 °F 32.0 °F 81% 30.03 in 10.0 mi South 13.8 mph - N/A   Clear
10:14 PM 35.6 °F 26.6 °F 32.0 °F 87% 30.03 in 10.0 mi South 13.8 mph - N/A   Clear
10:33 PM 35.6 °F 27.1 °F 32.0 °F 87% 30.03 in 10.0 mi South 12.7 mph - N/A   Clear
10:53 PM 35.6 °F 27.1 °F 32.0 °F 87% 30.02 in 10.0 mi South 12.7 mph 19.6 mph N/A   Clear
11:14 PM 35.6 °F 26.6 °F 32.0 °F 87% 30.01 in 10.0 mi South 13.8 mph 20.7 mph N/A   Clear
11:33 PM 35.6 °F 26.2 °F 32.0 °F 87% 30.01 in 10.0 mi South 15.0 mph - N/A   Clear
11:53 PM 35.6 °F 25.9 °F 32.0 °F 87% 30.01 in 10.0 mi South 16.1 mph 20.7 mph N/A   Clear